Probability
0 0 0 0 0 0 0 0 0 0 0 0 0 0 0 0 0 0 0 0 0 0 0 0 0 0 0 0 0 0 0 0 0 0 0 0 0 0 0 0 0 0 0
0 0 0 0 0 0 0 0 0 0 0 0 0 0 0 0 0 0 0 0 0 0 0 0 0 0 0 0 0 0 0 0 0 0 0 0 0 0 0 0 0 0 0
0 0 0 0 0 0 0 0 0 0 0 0 0 0 0 0 0 0 0 0 0 0 0 0 0 0 0 0 0 0 0 0 0 0 0 0 0 0 0 0 0 0 0
0 0 0 0 0 0 0 0 0 0 0 0 0 0 0 0 0 0 0 0 0 0 0 0 0 0 0 0 0 0 0 0 0 0 0 0 0 0 0 0 0 0 0
0 0 0 0 0 0 0 0 0 0 0 0 0 0 0 0 0 0 0 0 0 0 0 0 0 0 0 0 0 0 0 0 0 0 0 0 0 0 0 0 0 0 0
0 0 0 0 0 0 0 0 0 0 0 0 0 0 0 0 0 0 0 0 0 0 0 0 0 0 0 0 0 0 0 0 0 0 0 0 0 0 0 0 0 0 0
0 0 0 0 0 0 0 0 0 0 0 0 0 0 0 0 0 0 0 0 0 0 0 0 0 0 0 0 0 0 0 0 0 0 0 0 0 0 0 0 0 0 0
0 0 0 0 0 0 0 0 0 0 0 0 0 0 0 0 0 0 0 0 0 0 0 0 0 0 0 0 0 0 0 0 0 0 0 0 0 0 0 0 0 0 0
0 0 0 0 0 0 0 0 0 0 0 0 0 0 0 0 0 0 0 0 0 0 0 0 0 0 0 0 0 0 0 0 0 0 0 0 0 0 0 0 0 0 0
0 0 0 0 0 0 0 0 0 0 0 0 0 0 0 0 0 0 0 0 0 0 0 0 0 0 0 0 0 0 0 0 0 0 0 0 0 0 0 0 0 0 0
0 0 0 0 0 0 0 0 0 0 0 0 0 0 0 0 0 0 0 0 0 0 0 0 0 0 0 0 0 0 0 0 0 0 0 0 0 0 0 0 0 0 0
0 0 0 0 0 0 0 0 0 0 0 0 0 0 0 0 0 0 0 0 0 0 0 0 0 0 0 0 0 0 0 0 0 0 0 0 0 0 0 0 0 0 0
0 0 0 0 0 0 0 0 0 0 0 0 0 0 0 0 0 0 0 0 0 0 0 0 0 0 0 0 0 0 0 0 0 0 0 0 0 0 0 0 0 0 0
0 0 0 0 0 0 0 0 0 0 0 0 0 0 0 0 0 0 0 0 0 0 0 0 0 0 0 0 0 0 0 0 0 0 0 0 0 0 0 0 0 0 0
0 0 0 0 0 0 0 0 0 0 0 0 0 0 0 0 0 0 0 0 0 0 0 0 0 0 0 0 0 0 0 0 0 0 0 0 0 0 0 0 0 0 0
0 0 0 0 0 0 0 0 0 0 0 0 0 0 0 0 0 0 0 0 0 0 0 0 0 0 0 0 0 0 0 0 0 0 0 0 0 0 0 0 0 0 0
0 0 0 0 0 0 0 0 0 0 0 0 0 0 0 0 0 0 0 0 0 0 0 0 0 0 0 0 0 0 0 0 0 0 0 0 0 0 0 0 0 0 0
0 0 0 0 0 0 0 0 0 0 0 0 0 0 0 0 0 0 0 0 0 0 0 0 0 0 0 0 0 0 0 0 0 0 0 0 0 0 0 0 0 0 0
0 0 0 0 0 0 0 0 0 0 0 0 0 0 0 0 0 0 0 0 0 0 0 0 0 0 0 0 0 0 0 0 0 0 0 0 0 0 0 0 0 0 0
0 0 0 0 0 0 0 0 0 0 0 0 0 0 0 0 0 0 0 0 0 0 0 0 0 0 0 0 0 0 0 0 0 0 0 0 0 0 0 0 0 0 0
0 0 0 0 0 0 0 0 0 0 0 0 0 0 0 0 0 0 0 0 0 0 0 0 0 0 0 0 0 0 0 0 0 0 0 0 0 0 0 0 0 0 0
0 0 0 0 0 0 0 0 0 0 0 0 0 0 0 0 0 0 0 0 0 0 0 0 0 0 0 0 0 0 0 0 0 0 0 0 0 0 0 0 0 0 0
0 0 0 0 0 0 0 0 0 0 0 0 0 0 0 0 0 0 0 0 0 0 0 0 0 0 0 0 0 0 0 0 0 0 0 0 0 0 0 0 0 0 0
0 0 0 0 0 0 0 0 0 0 0 0 0 0 0 0 0 0 0 0 0 0 0 0 0 0 0 0 0 0 0 0 0 0 0 0 0 0 0 0 0 0 0
0 0 0 0 0 0 0 0 0 0 0 0 0 0 0 0 0 0 0 0 0 0 0 0 0 0 0 0 0 0 0 0 0 0 0 0 0 0 0 0 0 0 0
0 0 0 0 0 0 0 0 0 0 0 0 0 0 0 0 0 0 0 0 0 0 0 0 0 0 0 0 0 0 0 0 0 0 0 0 0 0 0 0 0 0 0
Height
5717 5719 5720 5722 5723 5724 5725 5725 5726 5726 5726 5726 5726 5725 5725 5724 5724 5723 5723 5722 5721 5719 5718 5717 5715 5714 5712 5711 5709 5707 5705 5704 5702 5700 5698 5696 5694 5692 5690 5688 5686 5685 5683
5707 5708 5709 5710 5712 5713 5713 5714 5714 5714 5714 5713 5713 5713 5712 5712 5711 5711 5710 5709 5708 5707 5705 5704 5703 5701 5700 5698 5697 5695 5694 5692 5690 5689 5687 5685 5684 5682 5680 5679 5677 5676 5675
5697 5698 5699 5700 5701 5701 5702 5702 5702 5702 5702 5702 5702 5701 5701 5700 5699 5698 5697 5696 5695 5694 5693 5691 5690 5689 5687 5686 5685 5683 5682 5680 5679 5678 5676 5675 5673 5672 5671 5670 5669 5667 5666
5686 5687 5688 5689 5690 5690 5691 5691 5691 5691 5691 5691 5690 5690 5689 5688 5687 5686 5685 5684 5683 5682 5680 5679 5678 5677 5675 5674 5673 5672 5671 5669 5668 5667 5666 5665 5664 5663 5662 5661 5660 5659 5658
5676 5677 5678 5679 5679 5680 5680 5680 5680 5680 5680 5680 5679 5678 5678 5677 5676 5674 5673 5672 5671 5669 5668 5667 5666 5665 5664 5663 5662 5661 5660 5659 5658 5657 5656 5655 5654 5654 5653 5652 5651 5650 5649
5666 5667 5668 5669 5669 5669 5670 5670 5670 5669 5669 5669 5668 5668 5667 5666 5665 5663 5662 5660 5659 5658 5657 5656 5655 5654 5653 5652 5651 5650 5649 5648 5648 5647 5646 5646 5645 5645 5644 5643 5643 5642 5641
5656 5657 5657 5658 5658 5659 5659 5659 5659 5659 5658 5658 5658 5657 5656 5655 5654 5652 5651 5649 5648 5647 5646 5645 5644 5643 5642 5641 5640 5640 5639 5638 5638 5638 5637 5637 5636 5636 5635 5635 5634 5633 5632
5645 5646 5646 5647 5647 5648 5648 5648 5648 5648 5647 5647 5647 5646 5645 5644 5643 5641 5640 5639 5637 5636 5635 5634 5634 5633 5632 5631 5631 5630 5629 5629 5629 5628 5628 5628 5627 5627 5626 5626 5625 5624 5623
5634 5635 5635 5636 5636 5637 5637 5637 5637 5637 5637 5636 5636 5635 5634 5633 5632 5630 5629 5628 5627 5626 5625 5624 5623 5623 5622 5622 5621 5621 5621 5620 5620 5619 5619 5619 5618 5618 5617 5616 5615 5615 5614
5623 5624 5624 5625 5625 5626 5626 5626 5626 5626 5626 5625 5625 5624 5623 5622 5621 5620 5619 5618 5617 5616 5615 5615 5614 5614 5613 5613 5613 5612 5612 5612 5611 5611 5611 5610 5609 5609 5608 5607 5606 5605 5604
5612 5613 5613 5614 5615 5615 5615 5615 5615 5615 5615 5615 5614 5613 5613 5612 5611 5610 5609 5608 5608 5607 5606 5606 5605 5605 5605 5604 5604 5604 5603 5603 5603 5603 5602 5602 5601 5600 5599 5597 5596 5595 5593
5601 5602 5602 5603 5604 5604 5604 5604 5604 5604 5604 5604 5604 5603 5603 5602 5601 5600 5600 5599 5599 5598 5598 5597 5597 5597 5596 5596 5596 5595 5595 5595 5594 5594 5593 5592 5591 5590 5589 5587 5586 5584 5582
5589 5590 5591 5592 5593 5593 5594 5594 5594 5594 5594 5593 5593 5593 5593 5592 5592 5592 5591 5591 5590 5590 5589 5589 5589 5589 5588 5588 5588 5587 5587 5586 5586 5585 5584 5583 5582 5580 5579 5577 5575 5573 5571
5578 5579 5580 5581 5582 5582 5583 5583 5584 5584 5584 5583 5583 5583 5583 5583 5583 5583 5583 5582 5582 5582 5581 5581 5581 5581 5580 5580 5580 5579 5579 5578 5577 5576 5574 5573 5572 5570 5568 5566 5564 5562 5560
5566 5567 5569 5570 5571 5572 5572 5573 5573 5574 5574 5574 5574 5574 5574 5575 5575 5575 5574 5574 5574 5574 5574 5573 5573 5573 5573 5572 5572 5571 5570 5569 5568 5566 5565 5563 5561 5559 5557 5555 5553 5550 5548
5554 5555 5557 5558 5560 5561 5562 5563 5563 5564 5564 5564 5565 5565 5565 5566 5566 5566 5566 5566 5566 5566 5566 5566 5565 5565 5564 5564 5563 5562 5561 5559 5558 5556 5555 5553 5551 5548 5546 5544 5541 5538 5535
5542 5544 5545 5547 5548 5550 5551 5552 5553 5554 5554 5555 5555 5556 5556 5557 5557 5557 5558 5558 5558 5558 5558 5557 5557 5556 5555 5555 5554 5552 5551 5549 5548 5546 5544 5542 5540 5537 5534 5532 5529 5526 5523
5530 5532 5533 5535 5537 5538 5540 5541 5543 5544 5545 5546 5546 5547 5547 5548 5548 5549 5549 5549 5549 5549 5549 5548 5548 5547 5546 5545 5544 5542 5541 5539 5537 5535 5533 5531 5528 5526 5523 5520 5517 5514 5511
5517 5519 5521 5523 5525 5527 5529 5530 5532 5533 5535 5536 5537 5537 5538 5538 5539 5539 5540 5540 5540 5540 5539 5539 5538 5537 5536 5535 5533 5532 5530 5528 5526 5524 5522 5519 5516 5514 5511 5508 5505 5502 5499
5504 5507 5509 5511 5513 5515 5517 5519 5521 5522 5524 5525 5527 5527 5528 5529 5530 5530 5530 5530 5530 5530 5530 5529 5528 5527 5526 5524 5522 5521 5519 5517 5515 5512 5510 5507 5505 5502 5499 5496 5493 5490 5487
5491 5494 5496 5498 5501 5503 5505 5507 5509 5511 5513 5515 5516 5517 5518 5519 5520 5520 5520 5520 5520 5520 5519 5519 5518 5516 5515 5513 5512 5510 5508 5505 5503 5501 5498 5495 5493 5490 5487 5484 5481 5477 5474
5478 5481 5484 5486 5488 5491 5493 5495 5498 5500 5502 5504 5505 5507 5508 5509 5509 5510 5510 5510 5510 5509 5509 5508 5507 5506 5504 5502 5501 5499 5497 5494 5492 5489 5487 5484 5481 5478 5475 5472 5468 5465 5461
5465 5468 5471 5474 5476 5479 5481 5484 5486 5488 5491 5493 5494 5496 5497 5498 5499 5499 5499 5499 5499 5499 5498 5497 5496 5495 5493 5492 5490 5488 5486 5483 5481 5478 5475 5472 5469 5466 5463 5459 5455 5451 5447
5452 5455 5459 5462 5465 5467 5470 5472 5475 5477 5479 5481 5483 5485 5486 5487 5488 5488 5489 5489 5489 5488 5488 5487 5486 5484 5483 5481 5479 5477 5475 5472 5470 5467 5464 5461 5457 5454 5450 5446 5442 5438 5433
5439 5443 5447 5450 5453 5456 5459 5461 5463 5466 5468 5471 5473 5474 5475 5476 5477 5478 5478 5478 5478 5478 5477 5476 5475 5474 5472 5470 5469 5466 5464 5461 5459 5456 5453 5449 5446 5441 5437 5433 5428 5424 5419
5426 5431 5435 5439 5442 5445 5448 5450 5453 5456 5458 5460 5462 5464 5465 5466 5467 5467 5468 5468 5468 5467 5467 5466 5465 5463 5462 5460 5458 5456 5453 5450 5448 5444 5441 5437 5433 5429 5424 5419 5414 5409 5404
Wind_Speed
43 44 45 46 47 48 49 50 51 51 52 52 53 53 53 53 53 53 52 52 52 52 52 51 51 50 49 48 48 47 46 46 45 45 44 42 41 40 39 37 35 33 31
41 42 43 44 45 46 47 48 49 49 50 50 50 51 51 51 51 51 51 51 50 50 50 49 49 49 48 47 46 46 45 45 44 43 42 41 39 38 36 34 32 31 30
40 41 42 43 44 45 46 47 47 47 47 47 48 48 48 48 49 49 49 49 49 49 48 48 47 46 46 45 44 44 44 43 42 41 40 38 37 35 33 32 32 30 29
38 39 40 41 42 42 43 44 45 45 45 45 45 46 46 46 47 48 48 48 48 47 46 46 45 44 44 43 43 42 41 40 40 39 37 36 34 33 32 31 31 30 29
37 37 38 39 39 40 41 41 42 43 43 44 44 44 44 44 44 45 45 45 45 44 43 43 43 42 42 41 40 40 39 38 37 36 34 33 32 32 31 31 30 29 29
38 38 38 38 39 40 40 41 41 42 42 43 43 43 42 43 43 43 43 43 43 42 41 41 41 41 40 39 39 38 37 35 34 33 33 32 32 31 31 30 30 29 29
38 39 39 39 40 40 40 41 41 42 42 42 42 41 41 41 42 42 43 42 41 40 40 40 39 39 38 38 37 36 35 34 33 32 32 32 31 31 31 30 30 30 30
39 39 40 40 40 40 40 40 41 41 41 41 41 41 41 41 41 41 41 40 39 39 39 38 37 37 37 36 35 34 33 32 31 31 31 31 30 30 31 31 31 31 31
39 39 40 40 40 40 40 40 40 40 40 40 40 40 40 40 39 39 38 38 37 37 36 36 35 35 34 33 32 31 31 30 30 30 30 30 30 31 31 31 31 31 32
39 39 39 39 39 39 39 39 39 39 40 39 39 39 38 38 37 36 36 35 34 33 33 32 32 32 31 31 31 30 30 29 29 29 30 30 31 31 31 32 32 32 33
39 39 39 39 39 39 39 39 39 39 38 38 38 37 36 36 35 34 33 32 32 31 31 30 30 29 29 30 30 29 29 29 29 30 31 31 32 32 32 33 33 34 34
38 38 39 39 39 38 38 37 37 37 37 37 36 35 35 34 32 32 31 31 30 30 29 29 28 28 28 28 28 28 29 29 30 31 31 31 32 32 33 34 34 35 36
38 38 37 37 38 37 37 36 36 36 35 35 34 34 33 32 31 30 30 29 28 28 28 27 27 27 26 27 27 28 28 29 30 30 31 32 32 33 33 34 35 36 36
38 38 37 37 37 37 36 35 35 35 34 33 32 31 31 30 29 29 29 28 27 26 26 26 26 26 26 27 27 28 28 29 30 31 32 33 33 34 35 36 37 37 38
38 38 37 37 36 36 36 35 35 34 33 32 31 30 29 29 28 28 27 26 26 25 25 25 25 26 26 27 27 28 29 30 31 32 33 34 34 35 36 37 38 39 39
38 38 37 37 36 36 35 35 34 33 32 31 30 30 29 29 28 28 27 27 26 26 26 26 26 27 27 28 29 30 31 32 32 33 34 35 36 37 38 38 39 40 40
38 37 37 37 36 36 35 35 34 33 31 31 30 30 29 29 28 28 27 27 26 27 27 28 28 29 29 30 31 32 33 33 34 35 36 36 37 38 39 39 39 40 40
37 37 36 36 36 36 36 35 34 33 32 31 30 30 30 29 29 29 28 28 28 28 29 29 30 31 32 33 33 34 35 35 36 36 37 38 38 38 39 39 40 40 40
37 37 37 37 36 36 36 36 35 34 33 33 32 31 30 30 30 30 30 30 30 30 31 32 33 33 34 34 35 35 36 36 37 37 38 38 39 39 39 40 40 40 41
38 37 38 38 37 37 37 37 36 35 35 34 33 32 31 31 31 31 31 32 32 32 33 33 34 34 34 35 35 36 36 37 37 38 38 39 39 39 39 40 40 40 41
38 38 38 38 38 38 37 37 36 36 35 34 33 33 33 32 32 33 33 33 33 33 33 33 34 34 35 35 36 36 37 37 38 38 38 38 39 39 39 39 40 41 42
39 38 38 37 36 37 37 36 36 35 35 34 34 34 34 34 33 33 33 33 33 34 34 34 34 34 34 35 35 36 36 36 36 37 37 37 38 38 39 40 41 42 43
39 39 38 37 36 36 36 36 36 36 36 35 35 35 35 34 34 33 33 33 33 33 33 33 33 33 34 34 34 34 34 35 35 36 37 37 38 39 40 41 42 43 44
38 38 38 37 36 35 35 35 35 35 35 35 34 34 34 33 33 33 33 33 33 33 33 33 33 33 33 33 33 33 34 34 35 36 36 37 38 39 41 42 44 44 46
38 37 36 36 35 34 33 33 33 34 33 33 33 32 32 32 32 32 32 32 33 33 33 32 32 32 32 32 33 34 34 35 35 36 37 38 39 41 43 44 45 46 47
36 36 35 35 34 34 33 32 32 32 32 32 32 32 32 32 31 32 32 32 32 32 32 32 32 32 32 33 34 35 35 36 37 37 38 40 42 43 45 45 46 47 48
Wind_Direction
253 254 255 256 257 259 261 263 264 266 268 268 270 271 272 273 274 275 276 277 278 278 278 278 279 279 279 279 280 281 281 282 282 283 283 283 283 283 283 283 283 282 283
253 254 255 256 257 259 261 262 264 266 267 269 270 272 273 274 274 275 276 277 277 278 278 279 279 279 278 278 279 279 280 280 281 281 281 281 281 281 280 280 280 280 281
253 254 256 257 258 259 260 262 263 265 267 269 270 272 273 274 274 275 276 276 277 277 278 278 278 278 277 277 278 278 278 279 279 279 279 279 279 278 277 277 277 278 279
254 255 256 257 258 260 261 263 263 265 267 269 271 272 273 274 275 276 276 276 276 276 276 276 277 276 276 276 277 277 277 277 278 278 277 277 276 275 274 275 276 277 278
252 254 255 257 258 260 262 263 265 266 267 269 271 273 274 275 276 276 277 276 276 276 276 276 276 276 276 276 276 277 276 276 276 276 274 273 273 273 273 274 275 276 277
252 254 256 258 259 261 263 264 265 266 268 269 271 273 275 276 277 278 278 278 277 276 276 276 276 275 275 275 275 275 274 273 273 272 271 272 272 272 273 273 274 276 277
254 255 257 259 261 262 264 265 265 267 268 270 271 273 275 276 277 278 278 278 277 276 276 276 275 275 274 274 273 272 272 271 270 270 270 270 271 272 274 274 275 277 278
256 256 258 259 261 262 263 264 265 267 268 269 271 273 274 275 277 278 277 277 276 275 275 275 274 273 273 272 271 271 270 270 270 270 270 271 272 274 275 276 277 278 279
256 256 258 259 260 262 263 265 266 267 268 269 271 273 274 275 276 277 276 276 276 274 274 273 273 272 272 271 270 269 270 269 268 269 270 271 273 275 276 277 277 278 280
256 257 258 259 260 262 263 265 266 267 268 269 271 272 274 275 275 275 275 275 275 274 273 272 272 272 271 270 269 269 269 269 269 270 271 272 274 276 277 278 279 280 281
256 257 258 259 260 262 263 265 266 267 268 269 270 271 273 274 274 274 273 273 273 273 272 271 271 271 270 270 269 270 270 270 270 272 273 274 276 278 279 280 280 281 282
256 257 258 259 260 261 263 264 266 267 268 269 269 270 271 272 272 272 271 272 273 272 271 270 270 270 271 270 271 271 272 273 274 274 276 277 278 279 280 281 282 283 284
256 256 257 257 259 261 262 263 265 267 267 268 268 269 270 270 270 270 270 271 270 270 270 270 270 269 270 271 272 273 274 275 276 277 278 280 281 282 283 283 284 285 285
256 256 256 256 258 259 260 262 264 265 266 266 267 267 268 268 268 268 268 268 268 269 270 270 270 270 271 272 273 274 276 278 279 279 280 282 283 283 284 285 285 286 286
255 255 255 256 257 259 260 261 263 264 264 264 264 264 265 266 265 265 266 266 266 268 269 270 271 272 274 274 276 277 279 280 281 282 283 283 284 285 286 286 286 287 287
254 254 254 255 257 258 258 259 261 262 263 262 261 262 263 264 264 264 265 266 267 267 268 269 271 273 274 276 277 279 280 281 282 283 283 284 285 286 287 287 287 287 288
254 254 254 254 255 256 257 258 259 261 261 260 260 261 261 262 263 262 264 264 266 268 269 271 272 274 275 277 279 280 281 283 283 284 285 286 287 287 288 288 288 288 289
254 253 254 254 254 256 256 256 257 258 258 258 259 259 260 261 261 261 263 265 267 269 270 272 274 275 277 279 280 281 282 283 284 285 285 287 287 288 288 288 288 288 289
252 252 252 253 254 255 255 255 255 255 256 257 258 258 259 260 261 263 264 267 268 269 271 273 275 276 278 279 281 282 283 283 284 285 286 287 287 288 289 289 289 289 289
251 251 251 251 252 253 254 255 254 254 255 257 256 257 259 261 263 264 266 267 268 270 272 274 275 277 279 280 282 283 284 284 285 286 287 287 288 288 289 289 289 290 291
250 250 251 252 253 253 253 253 253 253 254 255 255 256 258 262 264 266 267 268 269 271 272 274 276 278 279 280 282 284 285 285 286 287 288 288 289 289 290 290 290 291 292
248 249 250 251 252 251 251 251 251 252 252 254 255 257 260 263 265 266 267 268 270 271 272 274 277 279 281 282 284 285 286 286 287 288 289 289 290 290 291 292 292 293 293
248 248 249 249 250 251 251 251 251 251 252 254 256 258 261 262 263 264 266 268 270 272 273 275 277 279 280 282 283 285 286 287 288 289 290 291 291 292 293 293 294 295 295
246 246 247 249 250 250 250 250 250 251 252 253 255 257 259 260 262 264 266 267 269 271 274 276 277 279 280 281 283 285 287 288 289 291 291 292 292 293 294 295 296 296 296
244 244 245 246 246 247 248 249 249 251 252 253 254 256 257 259 262 264 266 267 269 271 273 275 277 279 280 282 284 286 287 288 289 291 292 293 294 295 296 296 296 297 297
242 242 243 243 244 245 247 248 249 250 252 253 254 255 257 259 261 264 266 268 270 272 274 276 277 279 281 283 285 286 288 288 290 291 292 294 295 296 297 297 298 297 297